Tracking 35331 objects as of 15-Sep-2026
HD Live streaming from Space Station
objects crossing your sky now

COSMOS 642

Track COSMOS 642 now!
10-day predictions
COSMOS 642 is classified as:


NORAD ID: 7266
Int'l Code: 1974-024B
Launch date: April 23, 1974
Source: Commonwealth of Independent States (former USSR) (CIS)
Launch site: PLESETSK MISSILE AND SPACE COMPLEX (PKMTR)
Your satellite tracking list
Your tracking list is empty




NASA's NSSDC Master Catalog

Two Line Element Set (TLE):
1 07266U 74024B   26257.67998060  .00000009  00000-0  13374-3 0  9995
2 07266  74.0183 148.6923 0103207  28.3871 358.9487 12.65842541421033
Source of the keplerian elements: AFSPC